Location: Düngen
(52.0952°N, 10.0219°E)
Time: 05:38:06
(UTC+00:00)

Cosmos 1655 Rocket - Visible Passes

Search period start: 06 June 2026 00:00
Search period end: 16 June 2026 00:00
Orbit: 969 x 1006 km, 83.0° (Epoch: 5 June)

Date Brightness Start Highest point End Pass type
(mag) Time Alt. Az. Time Alt. Az. Time Alt. Az.
6 Jun 4.7 21:33:22 10° NNW 21:39:27 51° W 21:45:32 10° SSW visible
7 Jun 4.3 20:16:35 10° N 20:22:52 60° ENE 20:29:08 10° SSE visible
7 Jun 5.5 22:02:48 10° NNW 22:08:08 30° W 22:13:30 10° SW visible
8 Jun 4.2 20:45:35 10° NNW 20:51:56 83° W 20:58:19 10° S visible
8 Jun 6.2 22:32:42 10° NW 22:36:37 17° WNW 22:40:34 10° WSW visible
9 Jun 4.8 21:14:45 10° NNW 21:20:49 49° W 21:26:54 10° SSW visible
10 Jun 5.6 21:44:11 10° NNW 21:49:30 29° W 21:54:49 10° SW visible
11 Jun 4.2 20:26:57 10° NNW 20:33:19 81° W 20:39:42 10° S visible
11 Jun 6.3 22:14:08 10° NW 22:17:58 17° WNW 22:21:49 10° WSW visible
12 Jun 4.9 20:56:09 10° NNW 21:02:11 48° W 21:08:14 10° SSW visible
13 Jun 5.7 21:25:35 10° NNW 21:30:51 28° W 21:36:08 10° SW visible
14 Jun 6.3 21:55:35 10° NW 21:59:19 16° WNW 22:03:03 10° WSW visible
15 Jun 5.0 20:37:32 10° NNW 20:43:34 46° W 20:49:36 10° SSW visible
